www.pogodaiklimat.ru

Погода и климат >> Архив погоды >> Испания >> Морон-де-ла-Фронтера


ПОГОДА в Морон-де-ла-Фронтере

  • Прогноз погоды в Морон-де-ла-Фронтере
  • Монитор погоды в Морон-де-ла-Фронтере

АРХИВ ПОГОДЫ в Морон-де-ла-Фронтере

Время (UTC), дата Ветер
(напр.,м/с)
 
Видим.   Явления Облачность Т
(С)
Тd
(С)
f
(%)
Тe
(С)
Тes
(С)
Комфортность P
(гПа)
Po
(гПа)
Тmin
(С)
Tmax
(С)
R
(мм)
R24
(мм)
S
(см)
09 11.07 В 4 20 км ясно +30.7 +14.8 38 +33 +41 душно 1012.1 1002.2
12 11.07 Ю 1 25 км ясно +35.8 +14.4 28 +37 +61 опасность
солнечного
удара
1011.2 1001.5
15 11.07 З 2 25 км ясно +37.9 +16.2 28 +40 +55 опасность
солнечного
удара
1009.8 1000.2
18 11.07 З 2 20 км ясно +33.3 +17.0 38 +37 +39 очень
душно
1010.3 1000.5 +39.2
21 11.07 З 2 13 км 1/0
[Ci sp]
+24.1 +19.2 74 +29 +29 душно 1014.1 1004.0
00 12.07 штиль 0 10 км 3/0
[Ci sp]
+22.3 +19.1 82 +28 +28 душно 1015.4 1005.2
03 12.07 В 1 10 км дымка 8/0
[Ci sp]
+21.4 +19.0 86 +26 +26 душно 1015.0 1004.8
06 12.07 штиль 0 6000 м дымка 6/0
[Ac As Ci sp]
+20.5 +18.1 86 +24 +24 комфорт 1015.5 1005.2 +19.5
09 12.07 СВ 5 7000 м мгла 9/1 1500 м
[Frnb As op]
+24.1 +18.3 70 +29 +30 душно 1014.1 1004.0
12 12.07 СЗ 1 15 км 10/0
[As op]
+29.0 +17.5 50 +33 +38 очень
душно
1014.2 1004.2
15 12.07 З 3 15 км 6/0
[Ac inh Cs]
+30.8 +17.8 46 +35 +44 очень
душно
1014.0 1004.1
18 12.07 З 3 15 км слаб. дождь 9/1 1000 м
[Frnb Ac As]
+25.0 +18.2 66 +29 +30 душно 1014.7 1004.6 +32.2
21 12.07 З 3 15 км {ливн. осадки, дождь} 9/0
[Ac As]
+23.3 +18.0 72 +29 +29 душно 1016.1 1005.9
00 13.07 З 3 15 км слаб. дождь 9/1 300 м
[Frnb Ac As]
+21.3 +18.3 83 +26 +26 душно 1017.3 1007.1 0.0
03 13.07 З 2 8000 м дымка {дождь} 9/3 300 м
[St Ac As Cs]
+20.4 +18.5 89 +25 +25 комфорт 1016.6 1006.3
06 13.07 ЮЗ 1 6000 м дымка {дождь} 8/8 300 м
[St]
+19.1 +17.2 89 +22 +22 комфорт 1016.7 1006.4 +18.8 0.0
09 13.07 ЮЗ 2 9000 м дымка 6/5 300 м
[Cu med, cong Ci fib]
+23.9 +17.9 69 +28 +34 душно 1017.1 1006.9
12 13.07 З 2 15 км 3/3 1000 м
[Cu hum]
+27.2 +15.6 49 +30 +44 душно 1016.2 1006.2
15 13.07 З 3 20 км ясно +29.2 +16.4 46 +33 +45 очень
душно
1014.3 1004.3
18 13.07 З 5 20 км ясно +26.2 +15.0 50 +29 +30 жарко 1013.8 1003.7 +29.9
21 13.07 З 4 15 км ясно +21.6 +16.3 72 +25 +25 комфорт 1016.4 1006.2
00 14.07 ЮЗ 5 10 км ясно +20.4 +17.0 81 +24 +24 комфорт 1016.1 1005.8
03 14.07 ЮЗ 3 10 км ясно +19.7 +16.7 83 +22 +22 комфорт 1014.9 1004.6
06 14.07 ЮЗ 3 8000 м дымка ясно +19.5 +17.3 87 +22 +22 комфорт 1015.2 1004.9 +19.1
09 14.07 ЮЗ 4 13 км ясно +24.1 +17.1 65 +28 +36 душно 1015.6 1005.5
12 14.07 З 2 20 км ясно +28.6 +14.4 42 +31 +53 опасность
солнечного
удара
1015.0 1005.0
15 14.07 З 2 20 км ясно +30.5 +16.1 42 +34 +49 очень
душно
1013.4 1003.5
18 14.07 З 6 18 км ясно +28.0 +16.3 49 +31 +32 душно 1012.9 1002.9 +31.5
21 14.07 ЮЗ 4 15 км ясно +23.6 +17.1 67 +27 +27 жарко 1014.2 1004.1
00 15.07 ЮЗ 5 15 км ясно +21.5 +16.9 75 +25 +25 комфорт 1014.0 1003.8
03 15.07 ЮЗ 2 14 км ясно +20.5 +16.3 77 +24 +24 комфорт 1013.6 1003.4
06 15.07 З 1 8000 м дымка ясно +19.3 +16.9 86 +22 +23 комфорт 1014.4 1004.1 +19.1
09 15.07 З 3 12 км ясно +23.9 +17.9 69 +28 +38 душно 1014.7 1004.6
12 15.07 З 2 18 км ясно +30.2 +18.3 49 +35 +55 опасность
солнечного
удара
1013.8 1003.9
15 15.07 З 3 20 км ясно +32.0 +17.8 43 +36 +49 очень
душно
1012.5 1002.7
18 15.07 З 4 20 км ясно +29.5 +16.7 46 +33 +34 душно 1011.9 1002.0 +32.5
21 15.07 З 2 15 км ясно +23.6 +17.6 69 +28 +28 душно 1013.2 1003.1
00 16.07 З 2 7000 м дымка 1/1 100 м
[St]
+19.9 +18.2 90 +23 +23 комфорт 1014.1 1003.8
03 16.07 ЮЗ 4 5000 м дымка ясно +18.5 +17.2 92 +19 +19 1013.2 1002.9
06 16.07 ЮЗ 2 6000 м дымка ясно +17.2 +15.9 92 +18 +18 1014.0 1003.6 +16.8
09 16.07 З 2 10 км ясно +23.5 +16.8 66 +27 +39 душно 1014.5 1004.4
12 16.07 З 2 15 км ясно +28.7 +17.2 50 +33 +55 опасность
солнечного
удара
1013.7 1003.7
15 16.07 З 2 20 км ясно +32.0 +17.5 42 +36 +51 опасность
солнечного
удара
1012.2 1002.4
18 16.07 СЗ 1 20 км ясно +29.0 +14.8 42 +31 +34 жарко 1012.2 1002.3 +32.5
21 16.07 З 4 15 км ясно +23.0 +16.3 66 +28 +28 душно 1014.0 1003.8
00 17.07 З 2 10 км ясно +19.8 +17.6 87 +23 +23 комфорт 1015.2 1004.9
03 17.07 Ю 4 10 км ясно +18.9 +16.5 86 +20 +20 1014.5 1004.2
06 17.07 СВ 1 7000 м дымка ясно +18.2 +15.8 86 +20 +20 1014.9 1004.6 +18.1
09 17.07 ЮЗ 2 9000 м дымка {туман} 9/9 300 м
[Cu Sc]
+22.9 +16.4 67 +28 +29 душно 1015.9 1005.7
12 17.07 З 3 20 км {туман} 3/3 1000 м
[Cu Sc]
+26.4 +14.8 49 +29 +41 жарко 1015.6 1005.5
15 17.07 З 3 20 км ясно +28.7 +14.9 43 +31 +43 жарко 1014.0 1004.0
18 17.07 З 4 25 км ясно +27.7 +14.0 43 +30 +31 жарко 1013.2 1003.2 +29.8
21 17.07 З 5 15 км ясно +20.9 +16.7 77 +25 +25 комфорт 1015.4 1005.2
00 18.07 ЮЗ 3 15 км ясно +19.8 +16.3 80 +22 +22 комфорт 1015.9 1005.6
03 18.07 Ю 3 12 км ясно +18.7 +15.9 84 +20 +20 1015.1 1004.8
06 18.07 штиль 0 12 км ясно +18.4 +15.8 85 +19 +20 1015.2 1004.9 +17.5

 

Местоположение метеостанции Морон-де-ла-Фронтера (Испания): широта 37.15 долгота -5.62 высота над уровнем моря 88 м.

В архиве по умолчанию представлена погода в Морон-де-ла-Фронтере за последнюю неделю. Архивные данные за месяц целиком и за предыдущие месяцы, начиная с января 2011 года, Вы можете получить, выбрав интересующий диапазон дат из раскрывающегося списка и нажав кнопку "Ввод!".


*Определитесь, кто Вы:
робот инопланетянин человек

Внимание! Время в таблицах - всемирное. Для получения местного времени необходимо прибавить поправку, которая равна 1 ч.

Смотрите также архив погоды в соседних городах и на ближайших метеорологических станциях:

Погода в Севилье (Испания) (39 км)
Погода в Грасалеме (Испания) (49 км)
Погода в Херес-де-ла-Фронтере (Испания) (60 км)
Погода в Эсихе (Испания) (62 км)
Погода в Рода-де-Андалусия (Испания) (75 км)
Погода в Антекера - Бобадилья (Испания) (78 км)
Погода в Касалья-де-ла-Сьерра (Испания) (88 км)
Погода в Эстепоне (Испания) (91 км)
Погода в Кадисской бухте (Испания) (92 км)
Погода в Сан-Фернандо (Испания) (92 км)

Пояснения к столбцам:

Ветер - указаны скорость ветра в м/с - средняя за 10 мин, порывы в срок и между сроками (в фигурных скобках) и направление, откуда дует ветер: С - северный, СВ - северо-восточный, В - восточный, ЮВ - юго-восточный, Ю - южный, ЮЗ - юго-западный, З - западный, СЗ - северо-западный.
Видимость - горизонтальная дальность видимости в метрах или километрах. При видимости от 1 до 10 км при отсутствии осадков обычно наблюдается дымка, при ухудшении видимости до 1 км и менее - туман. В сухую погоду видимость может ухудшаться дымом, пылью или мглою.
Явления - указаны атмосферные явления, наблюдавшиеся в срок или в последний час перед сроком; фигурными скобками обозначены явления, наблюдавшиеся между сроками (за 1-3 часа до срока); квадратными скобками обозначены град или гололедные отложения с указанием их диаметра в мм.
Облачность - указаны через наклонную черту общая и нижняя облачность в баллах и высота нижней границы облаков в метрах; квадратными скобками обозначены формы облаков: Ci - перистые, Cs - перисто-слоистые, Cc - перисто-кучевые, Ac - высококучевые, As - высокослоистые, Sc - слоисто-кучевые, Ns - слоисто-дождевые, Cu - кучевые, Cb - кучево-дождевые. Подробнее классификацию облаков см. в Атласе облаков (PDF).
T - Температура воздуха - температура, измеренная на высоте 2 м над землей.
Td - Температура точки росы - температура, при понижении до которой содержащийся в воздухе водяной пар достигнет насыщения.
f - Относительная влажность воздуха - влажноcть воздуха, измеренная на высоте 2 м над землей.
Te - Эффективная температура - температура, которую ощущает одетый по сезону человек в тени. Характеристика душности погоды. При расчете учитывается влияние влажности воздуха и скорости ветра на теплоощущения человека.
Tes - Эффективная температура на солнце - температура, которую ощущает человек, с поправкой на солнечный нагрев. Характеристика знойности погоды. Зависит от высоты солнца над горизонтом, облачности и скорости ветра. Ночью, в пасмурную погоду, а также при ветре 12 м/с и более поправка равна нулю.
P - Атмосферное давление - приведенное к уровню моря атмосферное давление.
Po - Атмосферное давление - измеренное на уровне метеостанции атмосферное давление.
Tmin - Минимальная температура - минимум температуры воздуха на высоте 2 м над землей.
Tmax - Максимальная температура - максимум температуры воздуха на высоте 2 м над землей.
R - Количество осадков - Количество выпавших осадков за период времени, мм. При наведении курсора мыши на число - период времени, за который выпало указанное количество осадков.
R24 - Количество осадков - Количество выпавших осадков за 24 часа, мм.
S - Снежный покров - Высота снежного покрова, см. При наведении курсора мыши на число - состояние снежного покрова и степень покрытия местности в баллах.